Golden Blaze — SVAG6 — position and weather

sailwx.info

Track history (hours):
 
Tides and Currents Weather Stations Pressure Air Temp Water Temp Dewpoint Dewpoint Depression Visibility Wind Speed Wind Dir Waves Ship Positions

Golden Blaze

Last reported at 2014-Sep-26 19:16 UTC. Time now 2014-Sep-30 20:05 UTC.
Position N 35°21' E 025°08'.

Length 74 m; draft 3 m.

Type: Ship. MMSI: 241148000.

Date/timePositionNaut miles runAvg speedWind from/ knotsBaromVisibWave heightAir tempDewpointWater temp
2014-Sep-26 19:16N 35°21' E 025°08'0 0.0
2014-Sep-26 18:33N 35°21' E 025°08'1 0.5
2014-Sep-26 17:28N 35°21' E 025°09'2426.1
2014-Sep-26 16:33N 35°44' E 025°08'2626.0
2014-Sep-26 15:33N 36°09' E 025°18'1615.5
2014-Sep-26 14:33N 36°23' E 025°26'0 0.0
2014-Sep-26 13:33N 36°23' E 025°26'0 0.0
2014-Sep-26 12:29N 36°23' E 025°26'0 0.0
2014-Sep-26 11:33N 36°23' E 025°26'0 0.0
2014-Sep-26 10:33N 36°23' E 025°26'0 0.0
2014-Sep-26 09:33N 36°23' E 025°26'0 0.0
2014-Sep-26 08:33N 36°23' E 025°26'1111.3
2014-Sep-26 07:34N 36°14' E 025°18'2727.3
2014-Sep-26 06:33N 35°47' E 025°13'2626.0
2014-Sep-26 05:33N 35°21' E 025°09'1 0.7
2014-Sep-26 04:33N 35°21' E 025°08'0 0.0
2014-Sep-26 03:33N 35°21' E 025°08'0 0.0
2014-Sep-26 02:09N 35°21' E 025°08'0 0.0
2014-Sep-26 01:33N 35°21' E 025°08'0 0.0
2014-Sep-26 00:33N 35°21' E 025°08'0 0.0
2014-Sep-25 22:24N 35°21' E 025°08'0 0.0
2014-Sep-25 20:29N 35°21' E 025°08'0 0.0
2014-Sep-25 19:33N 35°21' E 025°08'0 0.0
2014-Sep-25 18:33N 35°21' E 025°08'0 0.0
2014-Sep-25 17:33N 35°21' E 025°08'2721.9
2014-Sep-25 16:18N 35°48' E 025°14'2027.7
2014-Sep-25 15:34N 36°08' E 025°19'1715.8
2014-Sep-25 14:30N 36°23' E 025°26'0 0.0
2014-Sep-25 13:33N 36°23' E 025°26'0 0.0
2014-Sep-25 12:33N 36°23' E 025°26'0 0.0
2014-Sep-25 11:33N 36°23' E 025°26'0 0.0
2014-Sep-25 10:33N 36°23' E 025°26'0 0.0
2014-Sep-25 09:31N 36°23' E 025°26'0 0.0
2014-Sep-25 08:33N 36°23' E 025°26'1212.3
2014-Sep-25 07:34N 36°12' E 025°18'2726.7
2014-Sep-25 06:33N 35°46' E 025°13'5 0.4
2014-Sep-24 16:14N 35°51' E 025°15'1827.1
2014-Sep-24 15:34N 36°09' E 025°19'1514.9
2014-Sep-24 14:33N 36°23' E 025°26'0 0.0
2014-Sep-24 13:32N 36°23' E 025°26'0 0.0
2014-Sep-24 12:33N 36°23' E 025°26'0 0.0
2014-Sep-24 11:33N 36°23' E 025°26'0 0.0
2014-Sep-24 10:34N 36°23' E 025°26'0 0.0
2014-Sep-24 09:34N 36°23' E 025°26'0 0.0
2014-Sep-24 08:33N 36°23' E 025°26'1717.1
2014-Sep-24 07:34N 36°08' E 025°17'48 4.2
2014-Sep-23 20:11N 35°21' E 025°08'0 0.0
2014-Sep-23 19:34N 35°21' E 025°08'0 0.0
2014-Sep-23 15:29N 35°21' E 025°08'0 0.0
2014-Sep-22 23:31N 35°21' E 025°08'0 0.0
2014-Sep-22 20:28N 35°21' E 025°08'5 1.8
2014-Sep-22 17:29N 35°26' E 025°08'2425.7
2014-Sep-22 16:33N 35°49' E 025°03'2525.5
2014-Sep-22 15:33N 36°12' E 025°18'1313.0
2014-Sep-22 14:33N 36°23' E 025°26'0 0.0
2014-Sep-22 13:33N 36°23' E 025°26'0 0.0
2014-Sep-22 12:33N 36°23' E 025°26'0 0.0
2014-Sep-22 11:33N 36°23' E 025°26'0 0.0
2014-Sep-22 10:33N 36°23' E 025°26'0 0.0
2014-Sep-22 09:33N 36°23' E 025°26'0 0.0
2014-Sep-22 08:33N 36°23' E 025°26'1313.0
2014-Sep-22 07:34N 36°12' E 025°18'2727.2
2014-Sep-22 06:33N 35°45' E 025°13'2423.8
2014-Sep-22 05:32N 35°21' E 025°08'0 0.0
2014-Sep-22 04:33N 35°21' E 025°08'0 0.0
2014-Sep-22 03:33N 35°21' E 025°08'0 0.0
2014-Sep-22 01:33N 35°21' E 025°08'0 0.0
2014-Sep-21 20:15N 35°21' E 025°08'28 7.0
2014-Sep-21 16:16N 35°48' E 025°16'1927.6
2014-Sep-21 15:34N 36°07' E 025°19'1716.8
2014-Sep-21 14:33N 36°23' E 025°26'0 0.0
2014-Sep-21 13:33N 36°23' E 025°26'0 0.0
2014-Sep-21 12:33N 36°23' E 025°26'0 0.0
2014-Sep-21 11:33N 36°23' E 025°26'0 0.0
2014-Sep-21 10:33N 36°23' E 025°26'0 0.0
2014-Sep-21 09:30N 36°23' E 025°26'0 0.1
2014-Sep-21 08:33N 36°23' E 025°26'1716.8
2014-Sep-21 07:33N 36°08' E 025°17'2726.6
2014-Sep-21 06:33N 35°42' E 025°12'19 1.3
2014-Sep-20 16:27N 35°55' E 024°56'2426.7
2014-Sep-20 15:33N 36°14' E 025°14'1311.9
2014-Sep-20 14:26N 36°23' E 025°26'2 2.4
2014-Sep-20 13:33N 36°24' E 025°23'0 0.0
2014-Sep-20 12:34N 36°24' E 025°23'0 0.0
2014-Sep-20 11:34N 36°24' E 025°23'0 0.0
2014-Sep-20 10:33N 36°24' E 025°23'0 0.0
2014-Sep-20 09:34N 36°24' E 025°23'2 1.6
2014-Sep-20 08:33N 36°23' E 025°25'1918.6
2014-Sep-20 07:33N 36°10' E 025°10'21 1.4
2014-Sep-19 16:33N 35°49' E 025°13'2726.9
2014-Sep-19 15:34N 36°15' E 025°20'8 8.0
2014-Sep-19 14:34N 36°23' E 025°24'2 2.4
2014-Sep-19 13:32N 36°23' E 025°21'0 0.0
2014-Sep-19 12:32N 36°23' E 025°21'0 0.0
2014-Sep-19 11:33N 36°23' E 025°21'2 2.3
2014-Sep-19 10:33N 36°24' E 025°23'0 0.0
2014-Sep-19 09:34N 36°24' E 025°23'2 2.0
2014-Sep-19 08:33N 36°23' E 025°26'1919.5
2014-Sep-19 07:34N 36°05' E 025°16'15 1.0
2014-Sep-18 16:28N 35°51' E 025°14'2021.3
2014-Sep-18 15:33N 36°10' E 025°18'1414.2
2014-Sep-18 14:33N 36°23' E 025°26'0 0.0
2014-Sep-18 13:31N 36°23' E 025°26'0 0.0
2014-Sep-18 12:33N 36°23' E 025°26'0 0.0
2014-Sep-18 11:33N 36°23' E 025°26'0 0.0
2014-Sep-18 10:33N 36°23' E 025°26'0 0.0
2014-Sep-18 09:31N 36°23' E 025°26'0 0.1
2014-Sep-18 08:33N 36°23' E 025°26'2322.9
2014-Sep-18 07:33N 36°02' E 025°17'15 1.0
2014-Sep-17 16:15N 35°47' E 025°14'3721.9
2014-Sep-17 14:32N 36°23' E 025°26'4 3.2
2014-Sep-17 13:14N 36°23' E 025°21'0 0.0
2014-Sep-17 12:14N 36°23' E 025°21'0 0.0
2014-Sep-17 11:17N 36°23' E 025°21'0 0.0
2014-Sep-17 10:06N 36°23' E 025°21'0 0.0
2014-Sep-17 09:30N 36°23' E 025°21'  
Track history (hours):
 
Tides and Currents Weather Stations Pressure Air Temp Water Temp Dewpoint Dewpoint Depression Visibility Wind Speed Wind Dir Waves Ship Positions

Golden Blaze

Last reported at 2014-Sep-26 19:16 UTC. Time now 2014-Sep-30 20:05 UTC.
Position N 35°21' E 025°08'.

Length 74 m; draft 3 m.

Type: Ship. MMSI: 241148000.

Date/timePositionNaut miles runAvg speedWind from/ knotsBaromVisibWave heightAir tempDewpointWater temp
2014-Sep-26 19:16N 35°21' E 025°08'0 0.0
2014-Sep-26 18:33N 35°21' E 025°08'1 0.5
2014-Sep-26 17:28N 35°21' E 025°09'2426.1
2014-Sep-26 16:33N 35°44' E 025°08'2626.0
2014-Sep-26 15:33N 36°09' E 025°18'1615.5
2014-Sep-26 14:33N 36°23' E 025°26'0 0.0
2014-Sep-26 13:33N 36°23' E 025°26'0 0.0
2014-Sep-26 12:29N 36°23' E 025°26'0 0.0
2014-Sep-26 11:33N 36°23' E 025°26'0 0.0
2014-Sep-26 10:33N 36°23' E 025°26'0 0.0
2014-Sep-26 09:33N 36°23' E 025°26'0 0.0
2014-Sep-26 08:33N 36°23' E 025°26'1111.3
2014-Sep-26 07:34N 36°14' E 025°18'2727.3
2014-Sep-26 06:33N 35°47' E 025°13'2626.0
2014-Sep-26 05:33N 35°21' E 025°09'1 0.7
2014-Sep-26 04:33N 35°21' E 025°08'0 0.0
2014-Sep-26 03:33N 35°21' E 025°08'0 0.0
2014-Sep-26 02:09N 35°21' E 025°08'0 0.0
2014-Sep-26 01:33N 35°21' E 025°08'0 0.0
2014-Sep-26 00:33N 35°21' E 025°08'0 0.0
2014-Sep-25 22:24N 35°21' E 025°08'0 0.0
2014-Sep-25 20:29N 35°21' E 025°08'0 0.0
2014-Sep-25 19:33N 35°21' E 025°08'0 0.0
2014-Sep-25 18:33N 35°21' E 025°08'0 0.0
2014-Sep-25 17:33N 35°21' E 025°08'2721.9
2014-Sep-25 16:18N 35°48' E 025°14'2027.7
2014-Sep-25 15:34N 36°08' E 025°19'1715.8
2014-Sep-25 14:30N 36°23' E 025°26'0 0.0
2014-Sep-25 13:33N 36°23' E 025°26'0 0.0
2014-Sep-25 12:33N 36°23' E 025°26'0 0.0
2014-Sep-25 11:33N 36°23' E 025°26'0 0.0
2014-Sep-25 10:33N 36°23' E 025°26'0 0.0
2014-Sep-25 09:31N 36°23' E 025°26'0 0.0
2014-Sep-25 08:33N 36°23' E 025°26'1212.3
2014-Sep-25 07:34N 36°12' E 025°18'2726.7
2014-Sep-25 06:33N 35°46' E 025°13'5 0.4
2014-Sep-24 16:14N 35°51' E 025°15'1827.1
2014-Sep-24 15:34N 36°09' E 025°19'1514.9
2014-Sep-24 14:33N 36°23' E 025°26'0 0.0
2014-Sep-24 13:32N 36°23' E 025°26'0 0.0
2014-Sep-24 12:33N 36°23' E 025°26'0 0.0
2014-Sep-24 11:33N 36°23' E 025°26'0 0.0
2014-Sep-24 10:34N 36°23' E 025°26'0 0.0
2014-Sep-24 09:34N 36°23' E 025°26'0 0.0
2014-Sep-24 08:33N 36°23' E 025°26'1717.1
2014-Sep-24 07:34N 36°08' E 025°17'48 4.2
2014-Sep-23 20:11N 35°21' E 025°08'0 0.0
2014-Sep-23 19:34N 35°21' E 025°08'0 0.0
2014-Sep-23 15:29N 35°21' E 025°08'0 0.0
2014-Sep-22 23:31N 35°21' E 025°08'0 0.0
2014-Sep-22 20:28N 35°21' E 025°08'5 1.8
2014-Sep-22 17:29N 35°26' E 025°08'2425.7
2014-Sep-22 16:33N 35°49' E 025°03'2525.5
2014-Sep-22 15:33N 36°12' E 025°18'1313.0
2014-Sep-22 14:33N 36°23' E 025°26'0 0.0
2014-Sep-22 13:33N 36°23' E 025°26'0 0.0
2014-Sep-22 12:33N 36°23' E 025°26'0 0.0
2014-Sep-22 11:33N 36°23' E 025°26'0 0.0
2014-Sep-22 10:33N 36°23' E 025°26'0 0.0
2014-Sep-22 09:33N 36°23' E 025°26'0 0.0
2014-Sep-22 08:33N 36°23' E 025°26'1313.0
2014-Sep-22 07:34N 36°12' E 025°18'2727.2
2014-Sep-22 06:33N 35°45' E 025°13'2423.8
2014-Sep-22 05:32N 35°21' E 025°08'0 0.0
2014-Sep-22 04:33N 35°21' E 025°08'0 0.0
2014-Sep-22 03:33N 35°21' E 025°08'0 0.0
2014-Sep-22 01:33N 35°21' E 025°08'0 0.0
2014-Sep-21 20:15N 35°21' E 025°08'28 7.0
2014-Sep-21 16:16N 35°48' E 025°16'1927.6
2014-Sep-21 15:34N 36°07' E 025°19'1716.8
2014-Sep-21 14:33N 36°23' E 025°26'0 0.0
2014-Sep-21 13:33N 36°23' E 025°26'0 0.0
2014-Sep-21 12:33N 36°23' E 025°26'0 0.0
2014-Sep-21 11:33N 36°23' E 025°26'0 0.0
2014-Sep-21 10:33N 36°23' E 025°26'0 0.0
2014-Sep-21 09:30N 36°23' E 025°26'0 0.1
2014-Sep-21 08:33N 36°23' E 025°26'1716.8
2014-Sep-21 07:33N 36°08' E 025°17'2726.6
2014-Sep-21 06:33N 35°42' E 025°12'19 1.3
2014-Sep-20 16:27N 35°55' E 024°56'2426.7
2014-Sep-20 15:33N 36°14' E 025°14'1311.9
2014-Sep-20 14:26N 36°23' E 025°26'2 2.4
2014-Sep-20 13:33N 36°24' E 025°23'0 0.0
2014-Sep-20 12:34N 36°24' E 025°23'0 0.0
2014-Sep-20 11:34N 36°24' E 025°23'0 0.0
2014-Sep-20 10:33N 36°24' E 025°23'0 0.0
2014-Sep-20 09:34N 36°24' E 025°23'2 1.6
2014-Sep-20 08:33N 36°23' E 025°25'1918.6
2014-Sep-20 07:33N 36°10' E 025°10'21 1.4
2014-Sep-19 16:33N 35°49' E 025°13'2726.9
2014-Sep-19 15:34N 36°15' E 025°20'8 8.0
2014-Sep-19 14:34N 36°23' E 025°24'2 2.4
2014-Sep-19 13:32N 36°23' E 025°21'0 0.0
2014-Sep-19 12:32N 36°23' E 025°21'0 0.0
2014-Sep-19 11:33N 36°23' E 025°21'2 2.3
2014-Sep-19 10:33N 36°24' E 025°23'0 0.0
2014-Sep-19 09:34N 36°24' E 025°23'2 2.0
2014-Sep-19 08:33N 36°23' E 025°26'1919.5
2014-Sep-19 07:34N 36°05' E 025°16'15 1.0
2014-Sep-18 16:28N 35°51' E 025°14'2021.3
2014-Sep-18 15:33N 36°10' E 025°18'1414.2
2014-Sep-18 14:33N 36°23' E 025°26'0 0.0
2014-Sep-18 13:31N 36°23' E 025°26'0 0.0
2014-Sep-18 12:33N 36°23' E 025°26'0 0.0
2014-Sep-18 11:33N 36°23' E 025°26'0 0.0
2014-Sep-18 10:33N 36°23' E 025°26'0 0.0
2014-Sep-18 09:31N 36°23' E 025°26'0 0.1
2014-Sep-18 08:33N 36°23' E 025°26'2322.9
2014-Sep-18 07:33N 36°02' E 025°17'15 1.0
2014-Sep-17 16:15N 35°47' E 025°14'3721.9
2014-Sep-17 14:32N 36°23' E 025°26'4 3.2
2014-Sep-17 13:14N 36°23' E 025°21'0 0.0
2014-Sep-17 12:14N 36°23' E 025°21'0 0.0
2014-Sep-17 11:17N 36°23' E 025°21'0 0.0
2014-Sep-17 10:06N 36°23' E 025°21'0 0.0
2014-Sep-17 09:30N 36°23' E 025°21'  

Dump ship's entire track history